Wetbulb
66.19 61.68 61.18 59.43 54.86 55.43 52.83 54.50 58.05 56.60 59.23 65.10 66.39 65.43 64.80 65.74 63.92 63.17 74.25 75.66 75.65 75.87 74.72 76.06 76.65 77.23 77.40 77.23 77.10 76.85 76.67 76.45 76.37 76.40 76.49 76.49 76.22 75.62 75.82 76.00 75.71 75.58 75.72 75.77 75.44 75.05 74.65 74.29 73.55
63.58 58.21 58.22 56.02 50.87 50.66 52.42 56.58 56.01 57.87 62.84 63.42 64.61 65.16 64.99 64.15 69.75 71.75 73.39 75.68 76.59 76.22 74.71 74.23 76.50 76.95 77.17 77.22 76.94 76.64 76.52 76.27 76.00 76.12 76.20 75.99 75.95 75.79 75.56 75.77 75.81 75.79 75.95 75.80 75.05 74.39 73.68 72.78 72.06
60.81 58.15 53.06 50.25 49.62 48.57 52.24 56.44 57.92 59.07 59.70 60.86 61.66 64.90 64.66 66.55 70.69 72.61 75.88 76.18 77.20 75.87 74.25 74.22 76.40 76.50 76.90 76.89 76.84 76.72 76.64 76.34 76.10 75.62 75.67 75.95 75.95 75.92 76.05 75.82 75.51 75.58 75.43 74.64 74.05 73.12 72.27 71.63 71.29
56.49 54.31 53.46 48.19 46.43 51.10 54.05 57.90 59.18 58.66 59.65 61.79 62.92 60.98 68.94 72.47 72.04 74.18 76.38 76.56 76.61 75.53 74.14 75.71 76.17 76.32 76.57 76.49 76.42 76.26 76.39 76.42 76.07 75.59 75.54 75.44 75.04 75.24 75.57 74.96 74.77 74.25 73.66 73.08 72.52 72.06 71.44 70.88 70.66
56.64 53.09 47.18 45.76 46.93 50.18 54.31 57.63 59.34 58.51 58.77 60.88 62.42 60.77 66.11 72.46 74.43 75.50 76.36 76.47 75.78 75.27 75.42 75.27 75.96 76.07 76.19 76.37 76.12 75.89 75.94 75.79 75.69 75.54 75.19 75.07 74.74 74.74 74.72 74.53 74.27 73.68 73.11 72.49 71.59 71.25 71.05 71.18 71.27
51.92 52.00 45.45 44.27 46.66 49.93 52.43 56.66 58.68 58.76 59.62 60.05 60.90 61.30 64.98 73.57 74.31 75.53 76.31 76.45 76.27 75.23 75.58 75.11 75.84 75.82 75.77 75.99 76.01 75.64 75.31 75.07 75.29 75.32 75.17 74.79 74.39 74.27 74.04 73.60 73.07 72.40 71.92 71.62 71.38 71.29 71.26 71.58 72.05
50.77 48.49 45.34 46.47 47.29 48.87 51.10 55.91 55.86 57.54 58.85 58.92 60.83 61.30 68.05 70.98 75.01 75.88 76.07 76.71 76.48 75.74 75.00 74.57 74.32 75.36 75.74 75.81 75.80 75.60 75.35 75.04 75.09 75.04 74.92 74.49 73.64 73.03 72.70 72.37 71.95 71.65 71.30 70.99 71.03 71.21 71.63 72.56 72.92
52.74 50.36 46.23 46.82 46.35 47.60 52.45 52.88 55.90 56.82 57.49 62.29 61.95 59.33 61.84 70.52 74.66 75.77 75.75 75.92 76.08 75.61 75.14 74.28 74.35 73.36 73.28 74.61 75.88 76.00 75.72 75.47 75.08 74.86 74.44 74.20 73.06 72.63 72.25 71.92 71.28 71.03 71.43 71.81 72.11 72.61 73.01 73.60 73.62
54.38 46.75 44.28 46.42 47.21 48.54 52.67 51.19 54.61 57.12 56.47 59.92 61.75 63.21 70.45 73.48 73.77 74.09 73.98 74.25 74.89 74.68 74.82 74.37 73.86 73.85 73.01 72.37 74.80 75.59 75.44 75.14 75.01 74.20 73.82 72.93 72.05 72.16 72.25 71.91 71.66 72.00 72.68 73.23 73.44 74.12 74.44 74.46 73.89
50.10 45.70 46.02 49.65 50.66 49.58 51.46 51.45 52.41 53.47 53.59 55.61 60.46 69.31 71.73 73.07 71.90 71.12 71.51 71.54 72.86 73.49 74.12 74.37 74.13 74.29 74.13 72.66 73.73 72.71 73.81 74.39 74.34 73.93 72.96 72.40 73.75 73.97 72.79 71.87 71.09 72.07 72.47 73.31 74.11 73.77 73.57 73.32 75.11
50.87 45.85 49.51 49.94 51.14 50.59 50.36 51.10 53.15 52.74 52.63 54.29 55.21 65.12 70.44 71.35 71.00 70.67 71.08 71.57 72.19 73.70 74.15 74.36 74.67 75.36 74.84 73.88 73.00 72.19 71.57 71.87 73.31 74.87 74.93 74.15 72.88 72.71 72.30 72.42 72.67 75.84 73.33 75.34 75.33 75.72 75.17 75.46 75.92
47.44 50.39 50.48 50.77 51.14 49.72 48.99 51.38 50.92 52.57 54.10 57.21 60.18 63.68 70.16 71.17 70.98 69.44 70.81 71.75 72.30 73.16 73.88 74.42 75.13 75.21 75.27 74.82 74.62 73.89 72.58 72.27 71.78 72.77 74.61 74.03 72.46 72.44 73.27 72.04 74.74 75.56 76.57 75.94 76.17 74.84 76.52 76.94 77.11
47.28 49.25 51.09 51.97 51.33 50.13 50.59 49.64 50.45 51.76 54.57 60.75 58.27 65.93 69.52 70.96 71.86 72.19 71.86 72.37 72.35 72.64 73.64 74.31 75.42 75.38 75.23 75.49 74.94 74.68 74.11 73.03 72.18 72.68 73.18 72.52 71.71 72.38 71.95 74.08 75.35 76.19 76.21 76.33 76.06 76.32 77.07 76.09 74.59
47.98 48.19 48.94 51.28 51.52 51.32 48.89 49.63 51.07 52.42 54.94 55.44 57.17 56.80 63.31 69.63 71.55 72.37 72.18 70.79 71.76 72.62 73.46 74.59 74.69 75.60 75.71 75.45 75.67 75.02 75.18 74.46 73.27 72.03 71.89 72.77 72.13 72.45 71.50 74.05 76.72 77.22 76.80 76.32 76.15 75.11 72.88 72.01 70.87
48.74 45.14 47.68 48.51 50.69 50.17 51.18 47.41 48.23 52.70 54.64 54.33 56.13 57.17 62.38 65.61 71.25 71.86 72.11 71.55 71.73 72.44 73.93 74.49 74.25 75.54 75.70 75.48 75.49 75.13 75.17 74.38 72.73 71.82 72.55 72.32 72.98 73.27 73.32 75.57 77.23 76.87 76.62 76.03 75.16 71.19 69.04 67.99 67.48
44.85 45.37 41.48 47.28 48.61 50.18 49.90 44.60 49.88 52.82 53.43 53.07 54.37 55.59 61.40 65.91 69.30 71.91 72.37 72.60 72.87 72.42 72.67 73.86 73.98 75.01 75.38 75.43 75.32 74.61 74.51 73.57 72.35 71.72 71.50 71.99 72.55 72.99 73.95 75.90 76.10 75.11 71.81 70.33 68.13 65.85 64.53 64.57 62.92
42.62 38.77 40.64 43.24 49.07 48.42 48.59 45.94 49.95 52.65 52.26 52.71 54.20 55.19 60.05 65.47 69.36 71.46 72.05 72.35 72.60 72.68 72.73 72.89 73.40 73.04 73.62 75.43 74.90 74.51 74.54 72.61 72.13 71.24 70.57 71.83 72.04 73.16 74.90 76.03 71.99 70.46 68.21 65.56 64.65 63.98 62.32 62.18 62.55
37.72 38.98 41.35 41.51 46.62 47.45 47.04 46.83 49.89 51.73 51.77 52.17 53.55 54.82 57.98 65.22 68.61 71.21 72.06 72.30 72.77 72.85 73.03 72.46 72.47 73.00 73.35 73.70 73.88 72.33 72.08 71.58 71.01 70.82 70.97 72.61 73.18 75.13 76.38 73.07 69.90 69.92 66.48 63.46 62.63 62.98 62.37 61.67 61.33
42.37 40.84 40.80 43.64 46.72 46.68 45.60 47.12 48.84 51.43 51.60 51.67 52.84 54.07 56.30 64.58 69.28 71.83 72.28 72.44 71.95 72.31 71.73 72.66 72.08 73.67 73.30 71.34 69.62 69.10 68.48 69.70 71.07 72.61 73.67 74.07 75.29 75.53 71.96 67.87 64.79 64.35 61.45 61.40 62.48 60.78 60.34 59.62 61.48
41.82 39.95 41.03 44.45 46.48 46.21 46.53 45.35 48.88 50.63 51.51 52.21 52.57 53.88 55.85 64.17 68.45 70.83 71.70 71.88 71.60 71.70 72.19 72.57 72.60 73.04 73.18 71.15 71.62 71.20 71.11 71.93 73.57 74.87 75.32 75.63 73.27 69.50 68.38 67.07 65.56 64.50 62.91 62.03 61.15 58.93 57.57 58.48 61.04
41.19 40.38 41.43 42.49 45.14 46.09 46.04 44.86 46.23 49.57 51.69 52.73 53.46 55.38 56.79 63.17 67.69 69.89 70.51 70.91 71.63 71.60 72.21 72.47 72.74 72.98 72.96 73.37 73.53 74.00 74.24 74.10 71.79 69.31 70.25 70.11 71.51 68.18 67.75 66.06 65.75 64.34 62.52 60.44 59.09 59.46 59.16 58.23 60.57
37.84 43.88 42.52 43.52 42.70 37.83 45.88 38.80 45.04 47.64 48.78 50.88 52.79 54.44 59.59 64.17 67.44 69.71 70.66 70.97 71.43 72.12 73.01 72.99 72.68 72.67 72.97 74.20 74.45 74.37 71.21 71.19 71.59 68.07 69.38 68.78 66.74 66.37 65.86 65.36 64.79 62.98 59.52 60.76 60.04 60.86 61.03 61.32 58.31
38.58 43.92 44.45 44.22 42.33 42.57 42.51 41.27 44.77 47.79 46.18 48.74 52.01 54.83 57.87 63.58 66.56 68.42 70.30 71.19 71.89 72.61 72.75 73.33 73.04 72.95 72.93 73.87 74.04 71.69 72.43 71.83 69.27 68.09 66.93 66.78 66.79 68.24 66.16 64.87 60.69 58.59 59.12 60.41 60.23 61.19 60.93 60.18 58.66
44.39 40.18 44.24 45.56 44.08 37.86 42.30 41.82 43.07 44.80 47.21 50.18 52.58 54.70 58.20 63.26 66.87 68.82 70.44 71.23 71.66 71.84 72.59 72.21 72.86 73.13 73.64 73.25 73.37 73.02 72.20 70.22 68.16 67.05 64.91 64.09 64.12 64.74 61.99 62.97 61.74 59.62 60.24 60.69 60.75 61.51 61.31 60.58 59.18
43.71 41.04 36.18 35.15 36.31 36.15 44.08 41.38 45.38 48.12 50.11 51.93 52.47 54.65 59.09 63.74 66.86 68.72 69.28 70.04 71.14 71.51 71.96 72.13 72.41 71.91 72.62 72.65 72.82 72.93 72.99 71.33 69.73 68.38 66.06 62.73 60.65 60.99 62.87 63.21 59.94 59.70 62.46 62.16 61.39 60.25 58.35 57.60 56.00
40.83 43.39 36.82 32.13 33.80 37.54 43.44 38.62 45.16 50.61 51.32 52.92 54.28 56.47 59.97 63.16 66.29 68.33 69.78 70.14 70.74 71.26 71.41 71.53 71.45 71.88 72.57 72.88 72.98 73.51 73.50 71.18 70.23 69.48 66.78 64.52 63.47 62.60 61.05 59.78 60.97 62.50 61.94 60.34 58.79 57.23 56.99 56.57 55.33
43.38 40.28 46.48 41.28 42.50 39.34 40.58 44.06 49.41 51.36 50.75 52.24 53.45 55.89 58.97 62.01 64.68 67.19 69.40 70.29 71.02 71.43 71.38 71.49 71.60 71.76 72.07 72.00 72.28 72.54 71.72 71.87 69.62 68.04 67.99 64.73 60.70 59.20 59.83 60.13 59.62 59.67 59.64 58.82 58.20 56.40 56.29 55.75 55.69
46.15 47.67 40.10 43.14 34.39 34.37 38.76 41.50 43.68 48.06 49.53 52.17 52.84 55.47 59.42 62.94 64.78 66.45 68.38 69.86 71.12 71.44 71.39 71.73 71.51 71.11 71.29 71.41 70.06 70.11 69.16 68.99 67.97 66.02 63.08 60.56 59.60 58.21 56.10 55.86 57.84 58.51 57.92 57.23 56.79 56.01 54.66 54.18 54.54
43.61 43.76 44.66 45.55 43.45 37.95 35.92 41.44 52.04 52.75 54.01 53.94 53.79 56.35 59.93 62.73 65.00 66.38 68.06 69.39 69.85 70.32 70.20 70.35 70.31 70.17 69.56 69.01 67.71 68.08 66.79 65.78 64.34 61.07 59.22 56.82 55.97 55.84 55.14 55.39 55.27 56.35 56.07 56.06 55.82 55.27 53.22 52.62 53.79
46.28 43.70 45.77 42.02 38.06 43.20 43.63 43.35 54.57 54.90 56.05 56.61 57.20 58.43 60.71 63.63 65.10 66.57 67.61 68.32 68.51 68.76 69.24 66.74 67.63 66.96 66.91 66.01 64.34 63.23 62.61 62.15 56.91 56.61 55.63 56.61 56.28 55.80 55.39 54.47 53.74 54.28 54.77 54.79 54.11 52.90 52.53 51.82 51.41
MSLP
1011.91 1010.89 1010.43 1009.22 1007.30 1004.40 1001.44 1000.27 1000.25 999.82 1000.00 1000.52 1000.49 1000.26 1000.10 1000.43 1000.55 1001.80 1003.87 1004.41 1004.89 1006.27 1007.71 1009.06 1009.75 1010.05 1010.31 1010.80 1011.06 1011.40 1011.83 1012.49 1012.81 1013.01 1013.20 1013.21 1013.64 1013.91 1014.12 1014.34 1014.49 1014.55 1014.58 1014.65 1014.70 1014.77 1014.89 1014.98 1015.04
1011.09 1010.65 1009.82 1007.47 1005.53 1002.26 1000.25 999.95 999.67 999.55 999.99 1000.93 1000.89 1000.83 1000.75 1000.75 1001.89 1003.14 1003.83 1004.71 1005.40 1006.63 1007.67 1008.57 1009.91 1010.09 1010.38 1010.97 1011.17 1011.54 1011.95 1012.45 1012.96 1013.21 1013.31 1013.36 1013.83 1014.06 1014.17 1014.43 1014.61 1014.69 1014.78 1014.87 1014.93 1014.96 1015.02 1015.02 1015.03
1011.26 1010.46 1008.20 1006.21 1003.92 1001.15 999.47 999.07 999.53 999.29 1000.23 1000.73 1000.82 1001.05 1001.02 1001.49 1002.84 1003.02 1004.05 1004.98 1005.65 1007.01 1007.71 1008.78 1009.87 1010.15 1010.37 1011.05 1011.40 1011.73 1012.11 1012.42 1012.93 1013.36 1013.59 1013.66 1014.04 1014.28 1014.41 1014.55 1014.72 1014.88 1014.98 1015.06 1015.05 1015.07 1015.09 1015.09 1015.11
1010.35 1009.81 1008.13 1004.94 1001.75 1000.39 999.82 998.91 999.47 999.59 999.81 1000.47 1000.77 1001.10 1002.06 1003.23 1003.28 1003.60 1004.55 1005.07 1005.85 1006.89 1007.66 1009.16 1010.06 1010.35 1010.50 1011.03 1011.46 1011.83 1012.25 1012.53 1012.99 1013.39 1013.71 1014.03 1014.30 1014.57 1014.76 1014.85 1014.97 1015.06 1015.10 1015.22 1015.35 1015.39 1015.39 1015.24 1015.09
1009.94 1007.63 1005.67 1003.47 1001.39 1000.21 999.85 999.70 999.94 999.71 999.53 999.92 1001.01 1001.06 1002.09 1003.48 1003.99 1004.36 1004.72 1005.29 1005.88 1006.79 1007.81 1009.03 1010.11 1010.53 1010.84 1011.28 1011.57 1011.92 1012.44 1012.67 1012.95 1013.44 1013.87 1014.15 1014.42 1014.73 1014.94 1015.05 1015.15 1015.19 1015.25 1015.41 1015.47 1015.44 1015.33 1015.28 1015.15
1008.51 1006.65 1003.91 1001.65 1000.66 999.98 999.75 1000.17 999.92 999.96 999.39 999.95 1000.81 1001.56 1002.56 1003.85 1003.95 1004.41 1004.85 1005.37 1005.80 1006.69 1007.73 1009.08 1010.25 1010.53 1011.05 1011.44 1011.81 1012.03 1012.51 1012.85 1013.19 1013.67 1014.03 1014.29 1014.55 1014.83 1014.97 1015.05 1015.23 1015.38 1015.44 1015.40 1015.42 1015.37 1015.26 1015.13 1014.99
1007.40 1005.66 1002.88 1001.49 1000.11 999.19 999.06 1000.03 1000.40 1000.13 999.79 999.95 1000.49 1001.48 1002.79 1003.85 1004.04 1004.48 1004.95 1005.51 1006.13 1007.03 1007.90 1009.06 1009.83 1010.66 1011.27 1011.65 1012.05 1012.35 1012.70 1013.06 1013.43 1013.79 1014.14 1014.34 1014.59 1014.85 1015.05 1015.20 1015.34 1015.49 1015.62 1015.55 1015.49 1015.42 1015.17 1015.00 1014.81
1007.47 1005.63 1003.35 1001.41 999.91 998.52 999.31 999.91 1000.56 1000.19 999.71 1000.10 1001.15 1001.06 1001.81 1003.51 1004.23 1004.51 1004.93 1005.51 1006.29 1006.95 1007.71 1008.78 1009.49 1010.15 1011.00 1011.73 1012.46 1012.69 1012.98 1013.35 1013.64 1013.91 1014.20 1014.51 1014.76 1015.01 1015.20 1015.25 1015.37 1015.53 1015.61 1015.57 1015.43 1015.29 1015.09 1014.86 1014.63
1008.33 1005.52 1002.55 1001.01 1000.07 999.87 1000.02 999.71 1000.54 1000.79 1000.21 1000.40 1000.79 1001.24 1002.67 1003.57 1004.33 1004.53 1004.75 1005.37 1005.95 1006.68 1007.46 1008.19 1008.85 1009.64 1010.18 1011.02 1012.24 1012.95 1013.26 1013.49 1013.85 1014.05 1014.35 1014.46 1013.77 1014.41 1014.73 1015.11 1015.41 1015.57 1015.59 1015.53 1015.33 1015.23 1014.99 1014.73 1014.15
1007.28 1004.96 1002.34 1001.69 1000.77 1000.51 1000.25 1000.40 1000.34 1000.41 1000.11 1000.03 1000.60 1002.12 1003.42 1003.88 1004.37 1004.36 1004.31 1004.72 1005.45 1006.24 1007.09 1007.76 1008.37 1009.19 1009.62 1010.54 1011.80 1012.19 1012.59 1012.75 1012.98 1013.22 1013.86 1013.39 1013.86 1014.16 1014.46 1014.92 1015.31 1015.26 1015.24 1015.17 1014.99 1014.89 1014.66 1014.22 1012.73
1006.39 1004.40 1003.35 1002.53 1002.01 1002.11 1001.35 1000.51 1000.71 999.77 999.12 999.17 999.89 1000.89 1003.05 1003.74 1004.32 1004.39 1004.33 1004.57 1005.26 1006.09 1006.82 1007.58 1008.49 1009.23 1009.51 1010.10 1011.15 1011.45 1011.89 1012.16 1012.60 1013.06 1013.48 1013.59 1013.77 1014.08 1013.98 1013.96 1013.97 1014.04 1014.40 1013.70 1014.00 1013.87 1013.39 1013.54 1013.21
1006.18 1004.98 1004.51 1003.68 1003.19 1003.21 1002.15 1001.57 1000.47 999.96 999.36 998.93 999.39 1000.03 1002.11 1003.14 1003.77 1004.16 1004.40 1004.69 1005.41 1006.29 1006.79 1007.61 1008.67 1009.51 1009.61 1009.89 1010.67 1010.95 1011.20 1011.85 1012.29 1012.75 1013.51 1013.58 1013.62 1013.93 1014.16 1013.82 1013.88 1013.85 1013.41 1013.75 1013.65 1013.44 1013.85 1013.51 1013.41
1005.85 1005.23 1004.76 1004.75 1004.35 1003.23 1002.80 1001.51 1000.93 1000.17 1000.01 1000.24 1000.75 1001.03 1001.53 1002.35 1003.17 1004.01 1004.53 1005.15 1005.55 1006.16 1006.80 1007.63 1008.73 1009.62 1009.92 1010.24 1010.32 1010.70 1011.11 1011.59 1011.90 1012.63 1013.12 1013.06 1013.19 1013.71 1013.87 1014.01 1013.72 1013.61 1013.41 1013.21 1013.32 1013.35 1013.87 1013.55 1013.43
1005.80 1005.95 1005.40 1004.88 1004.34 1003.65 1002.97 1001.96 1001.64 1000.57 1000.69 1000.32 1000.89 1001.33 1001.32 1001.68 1002.48 1003.53 1004.30 1005.01 1005.75 1006.34 1006.86 1007.61 1008.71 1009.76 1010.06 1010.24 1010.39 1010.72 1010.97 1011.25 1011.89 1012.17 1012.65 1013.22 1013.23 1013.64 1013.51 1013.75 1013.37 1013.45 1013.28 1013.29 1013.86 1014.16 1014.57 1014.67 1014.47
1006.85 1005.97 1005.37 1004.58 1004.16 1003.35 1003.25 1002.12 1000.52 1000.62 1000.31 1000.22 1000.45 1000.78 1001.09 1001.20 1001.95 1002.87 1003.95 1004.78 1005.73 1006.46 1007.01 1007.77 1009.05 1009.40 1009.85 1010.11 1010.67 1010.51 1010.61 1010.83 1011.28 1011.68 1012.54 1012.83 1013.21 1013.52 1013.49 1013.29 1013.35 1013.73 1013.91 1014.14 1014.22 1014.92 1015.29 1014.83 1014.22
1007.13 1006.44 1004.51 1003.50 1003.69 1003.22 1003.29 999.73 1000.29 1000.64 1000.09 1000.14 1000.47 1000.64 1000.96 1001.17 1001.60 1002.62 1003.50 1004.46 1005.65 1006.35 1006.90 1007.83 1008.48 1008.94 1009.62 1009.99 1010.56 1010.22 1010.22 1010.57 1010.85 1011.31 1011.92 1012.47 1012.69 1012.89 1013.17 1012.97 1013.46 1014.16 1014.90 1015.09 1015.35 1015.70 1015.26 1014.67 1014.23
1006.35 1004.41 1003.52 1002.73 1002.26 1002.59 1002.32 999.70 999.74 999.38 999.57 999.65 999.93 1000.09 1000.55 1000.88 1001.49 1002.33 1003.05 1004.09 1005.23 1005.95 1006.61 1007.45 1008.13 1008.87 1009.51 1009.90 1010.21 1010.33 1010.42 1010.51 1010.59 1011.01 1011.23 1011.90 1011.92 1012.01 1011.98 1012.46 1013.62 1013.86 1014.17 1014.84 1015.42 1015.81 1015.73 1015.14 1014.49
1004.83 1004.14 1002.93 1001.89 1001.68 1001.85 1000.57 1000.36 999.52 998.90 999.21 999.27 999.49 999.75 1000.02 1000.69 1001.29 1002.04 1002.73 1003.67 1004.96 1005.72 1006.52 1007.44 1008.09 1008.77 1009.05 1009.66 1009.97 1010.13 1010.41 1010.42 1010.58 1010.90 1011.16 1011.84 1011.75 1011.87 1012.21 1013.11 1013.95 1013.85 1013.66 1013.68 1014.47 1015.17 1015.09 1015.34 1016.12
1005.38 1003.63 1002.35 1001.51 1001.37 1000.85 1000.17 999.98 999.93 999.25 999.15 998.76 998.73 999.13 999.64 1000.41 1001.19 1001.85 1002.63 1003.64 1004.82 1005.68 1006.46 1007.12 1007.46 1008.37 1008.76 1008.79 1009.41 1009.50 1010.03 1010.41 1010.69 1010.93 1011.23 1011.80 1012.03 1012.93 1013.81 1014.67 1015.43 1015.56 1015.75 1015.64 1014.87 1015.35 1014.80 1015.62 1016.63
1006.28 1003.78 1002.04 1001.42 1000.82 1000.53 999.75 999.56 999.49 999.25 998.80 998.42 998.24 998.31 999.11 999.98 1000.94 1001.81 1002.68 1003.29 1004.37 1005.19 1005.90 1006.42 1007.34 1008.08 1008.15 1008.45 1009.17 1009.37 1009.82 1010.11 1010.43 1011.10 1011.50 1011.67 1012.86 1014.01 1014.27 1014.44 1014.81 1015.43 1015.34 1015.48 1015.58 1015.64 1015.73 1016.67 1017.19
1005.75 1004.03 1003.00 1000.95 1000.45 1000.34 999.67 998.61 998.55 998.44 998.46 998.26 997.86 997.83 998.58 999.37 1000.60 1001.57 1002.45 1003.15 1003.98 1004.82 1005.43 1006.12 1006.78 1007.49 1007.98 1008.49 1009.16 1009.37 1009.99 1010.19 1011.47 1012.44 1012.77 1013.11 1013.29 1014.07 1014.35 1014.78 1015.03 1015.41 1015.43 1015.33 1015.69 1016.15 1016.88 1017.46 1017.65
1004.41 1003.70 1003.84 1002.11 999.34 998.86 999.35 996.88 997.07 997.28 997.37 997.53 997.50 997.44 997.83 998.94 1000.07 1001.13 1002.03 1002.90 1003.70 1004.42 1005.31 1006.09 1006.65 1007.27 1007.66 1008.33 1008.58 1009.09 1009.51 1009.90 1010.86 1012.61 1013.05 1013.37 1014.15 1014.51 1014.76 1014.90 1015.16 1015.39 1016.26 1015.30 1016.10 1015.75 1016.97 1017.64 1017.50
1004.35 1004.31 1003.12 1001.29 999.05 998.10 997.76 996.44 994.19 995.81 995.78 996.04 996.36 996.52 997.24 998.29 999.57 1000.51 1001.30 1002.37 1003.31 1004.22 1004.95 1005.87 1006.56 1006.96 1007.54 1008.14 1008.42 1009.17 1009.35 1010.23 1011.74 1012.55 1013.16 1013.61 1014.06 1014.21 1014.45 1014.91 1015.54 1015.33 1014.82 1016.20 1016.11 1015.36 1017.20 1017.67 1017.61
1004.55 1005.45 1003.05 1000.33 998.27 997.04 996.17 995.20 993.03 993.88 993.94 994.64 995.42 995.75 996.56 997.67 999.05 1000.17 1000.93 1001.99 1002.85 1004.07 1004.45 1005.54 1006.49 1006.95 1007.58 1008.23 1008.58 1009.00 1009.44 1010.47 1011.49 1012.41 1013.19 1013.89 1014.34 1014.83 1015.21 1015.28 1014.95 1015.18 1015.81 1015.95 1016.07 1015.87 1017.01 1017.29 1017.42
1003.54 1002.97 1000.53 998.72 997.05 995.55 995.31 994.99 992.77 992.89 993.73 994.05 994.51 995.23 996.31 997.35 998.48 999.68 1000.58 1001.28 1002.49 1003.27 1003.87 1005.46 1006.26 1006.83 1007.52 1007.91 1008.38 1008.96 1009.65 1010.59 1011.12 1012.03 1012.80 1013.76 1014.67 1015.02 1015.10 1015.63 1015.43 1015.79 1015.91 1016.45 1016.50 1017.03 1017.44 1017.87 1017.78
1002.54 1001.01 998.43 996.48 995.37 994.49 995.29 994.14 993.19 993.78 993.21 993.99 994.43 994.99 996.39 997.11 997.87 999.16 1000.20 1001.06 1002.09 1002.99 1004.06 1005.08 1005.81 1006.67 1007.30 1007.72 1008.14 1008.80 1009.39 1010.02 1010.72 1011.78 1012.46 1013.48 1014.31 1015.19 1015.73 1016.27 1016.00 1016.01 1016.20 1016.78 1017.14 1017.68 1017.93 1018.62 1018.11
1000.32 999.83 998.59 996.05 994.81 994.23 994.81 994.17 994.07 994.19 994.13 994.21 994.34 994.95 995.98 996.91 997.60 998.87 999.99 1000.98 1001.83 1002.89 1003.83 1004.75 1005.59 1006.32 1007.10 1007.64 1008.06 1008.64 1009.53 1010.02 1010.80 1011.99 1012.76 1013.69 1014.74 1015.48 1016.07 1015.98 1016.52 1016.62 1016.83 1017.10 1017.54 1017.84 1018.19 1018.31 1018.69
999.66 998.21 997.53 996.20 994.87 993.57 994.28 993.91 993.58 994.32 994.41 994.43 994.54 994.81 995.80 996.95 997.73 998.65 999.67 1000.71 1001.52 1002.68 1003.82 1004.78 1005.56 1006.27 1007.10 1007.73 1008.72 1009.17 1010.13 1010.83 1011.55 1012.66 1013.65 1014.55 1015.02 1015.79 1016.31 1016.56 1017.01 1017.11 1017.25 1017.63 1017.84 1018.13 1018.55 1018.51 1018.59
998.96 998.19 997.45 996.56 995.63 993.59 994.31 994.56 995.94 995.71 995.62 994.70 994.62 995.30 995.91 996.84 997.54 998.48 999.55 1000.87 1001.93 1002.99 1004.06 1005.18 1005.99 1006.71 1007.64 1008.54 1009.38 1010.00 1010.87 1011.71 1012.55 1013.57 1014.30 1015.02 1015.70 1016.37 1016.87 1017.12 1017.28 1017.29 1018.05 1018.21 1018.31 1018.62 1018.81 1018.72 1018.88
998.39 997.77 997.33 996.51 996.28 995.16 994.05 995.73 997.31 997.17 996.93 996.49 996.25 996.38 996.35 996.97 997.72 998.81 999.90 1001.12 1002.37 1003.41 1004.44 1006.09 1006.73 1007.73 1008.75 1009.59 1010.44 1011.17 1011.92 1012.73 1013.82 1014.48 1015.26 1016.17 1016.57 1016.55 1017.55 1017.26 1017.89 1017.92 1018.16 1018.52 1018.74 1018.72 1018.77 1018.85 1018.71
Wind_Speed
13 8 5 6 9 9 18 19 12 8 7 1 4 4 3 6 6 6 6 11 20 22 22 20 17 18 19 18 19 19 18 15 13 13 13 14 13 13 12 11 10 11 10 9 9 9 7 6 4
4 6 6 7 11 17 16 19 15 15 4 2 4 6 7 1 3 8 12 14 22 21 21 21 17 19 19 17 19 19 18 16 14 13 13 14 13 12 13 11 10 10 9 8 7 6 5 4 3
8 8 8 7 16 22 20 17 19 16 6 6 3 3 5 4 4 6 8 19 23 20 20 18 18 19 21 18 18 18 18 17 15 13 12 13 12 11 10 10 9 8 7 5 5 4 3 3 3
8 7 7 14 23 29 28 18 13 18 10 7 5 7 5 4 1 4 15 21 22 21 19 21 16 17 19 20 19 18 17 17 15 13 13 12 11 10 8 8 7 6 5 3 3 3 3 4 4
8 7 14 20 29 28 19 23 9 16 16 8 5 3 2 4 4 10 18 20 22 21 19 20 17 16 17 18 18 18 16 16 15 13 12 12 11 10 8 7 5 4 3 2 2 3 3 5 6
10 9 16 24 26 28 26 16 16 17 13 10 9 4 2 4 8 12 17 20 21 19 19 19 17 17 16 17 17 18 16 15 14 13 12 11 10 8 7 6 4 2 1 1 2 3 5 5 6
19 14 22 25 24 28 26 18 20 21 18 13 3 5 5 7 9 13 18 19 19 19 18 17 18 16 15 15 16 16 15 14 13 12 10 10 10 8 6 4 3 2 2 3 4 5 6 7 7
13 16 26 27 23 28 19 17 20 21 19 16 2 7 8 11 13 16 19 19 19 19 19 18 16 17 15 14 13 14 14 13 12 11 10 9 8 6 5 4 4 2 4 5 6 7 7 8 9
13 15 20 29 28 20 16 19 19 20 22 12 14 10 5 18 16 19 19 19 18 17 18 19 18 16 16 16 14 13 14 13 12 11 9 9 7 7 7 8 4 4 6 8 8 8 8 10 14
16 18 26 19 21 15 22 14 15 19 22 24 15 9 11 19 18 20 22 20 21 20 19 18 17 17 15 12 14 13 12 11 10 9 9 6 5 3 3 1 2 5 5 10 9 8 9 12 5
22 24 18 20 18 14 18 19 15 20 20 22 25 18 16 18 18 19 19 19 19 18 16 18 15 14 15 12 11 7 8 7 7 8 7 4 5 4 4 1 3 1 8 5 5 5 4 7 7
25 21 24 19 15 15 22 20 20 23 18 12 13 21 19 20 21 21 20 20 20 20 18 17 16 13 13 10 9 9 7 7 7 8 8 6 5 4 1 2 2 3 2 4 3 4 4 5 6
25 23 17 21 19 18 18 24 17 21 20 5 7 3 15 18 19 20 18 17 17 19 18 17 16 14 12 11 9 8 7 7 7 8 9 6 4 3 3 0 3 3 3 3 4 4 6 6 7
11 21 23 17 23 22 18 20 21 19 15 13 11 10 14 17 19 19 19 18 18 18 18 17 16 15 14 12 11 9 8 8 8 7 8 8 5 4 2 3 2 2 3 6 5 6 8 8 9
16 19 16 23 20 25 19 23 30 21 23 22 16 11 9 14 19 21 21 21 19 17 17 18 17 17 15 13 11 10 9 9 8 8 9 9 7 6 4 3 2 3 4 4 6 9 5 5 6
15 20 20 21 25 22 18 30 26 24 23 17 15 12 9 12 18 20 21 20 20 19 19 18 16 17 16 13 11 9 9 9 8 8 9 11 10 8 7 5 5 7 7 7 6 5 5 6 7
20 19 26 23 20 22 24 23 22 26 23 22 17 14 11 11 16 17 20 20 21 20 20 19 17 16 16 13 10 10 10 8 9 9 9 13 13 13 10 7 8 10 8 6 4 4 4 6 8
16 23 21 23 21 26 31 24 11 14 16 21 20 18 13 12 17 19 19 19 19 19 19 17 15 15 15 12 9 9 9 9 8 8 9 12 10 11 8 8 8 6 8 9 6 4 7 8 10
23 20 21 18 22 20 29 25 24 13 10 20 20 20 16 15 15 16 18 18 19 18 15 21 17 15 13 12 11 11 9 8 8 7 8 10 8 10 9 9 9 8 8 9 9 5 7 7 9
28 19 21 18 18 23 17 27 26 25 18 13 18 21 19 16 15 17 18 18 18 19 20 18 20 19 14 10 8 6 8 8 7 5 3 6 11 12 11 10 9 8 8 9 11 10 7 7 9
25 17 16 20 22 24 14 20 24 28 21 17 14 18 20 19 18 18 19 19 18 18 19 18 19 18 15 13 9 7 6 4 5 6 6 8 12 12 12 11 9 9 6 8 7 7 7 2 6
20 21 9 23 17 15 20 12 22 26 24 23 19 19 20 19 18 18 19 19 19 17 15 16 17 17 15 15 12 10 9 9 8 6 7 10 12 11 12 11 10 9 3 6 2 7 3 3 6
12 8 17 17 16 19 22 14 21 22 21 26 23 22 21 19 19 20 20 19 17 15 14 13 14 15 14 14 9 9 8 9 8 8 11 12 11 12 12 12 10 6 6 4 7 9 3 3 4
11 13 26 14 12 13 18 20 14 21 26 26 24 21 21 20 19 19 18 17 15 14 15 12 15 14 13 13 11 11 10 10 10 11 9 8 8 8 10 9 9 7 5 6 3 8 5 2 2
5 7 9 11 8 11 16 14 9 22 20 20 21 21 19 19 19 19 20 17 15 16 15 14 15 14 13 13 12 11 11 11 11 12 10 11 8 7 9 8 7 5 4 5 5 4 3 1 3
18 16 6 14 12 11 12 9 7 3 15 19 18 18 17 17 18 19 20 18 18 18 17 16 15 14 13 12 11 11 11 8 7 10 9 10 8 6 8 5 5 8 8 7 6 4 3 4 4
15 21 10 8 4 12 10 4 7 8 13 13 15 19 18 17 17 19 19 17 18 18 16 15 14 13 12 11 9 9 7 9 8 10 10 9 8 8 7 6 7 8 8 7 5 3 2 4 6
17 7 5 6 7 10 8 10 12 14 13 13 19 14 16 15 16 16 18 18 15 15 13 12 12 11 11 10 8 6 8 7 8 10 11 11 10 9 9 9 7 8 8 6 4 2 3 5 5
9 10 5 7 7 1 9 9 7 9 6 7 17 18 15 15 16 16 15 14 14 13 13 11 10 9 6 8 7 7 7 8 10 10 10 10 11 10 9 7 7 8 6 6 4 2 4 7 7
9 9 8 3 3 7 1 10 7 8 8 5 10 7 8 14 15 15 15 15 14 13 12 10 10 9 9 10 10 11 11 10 12 12 12 9 12 11 4 9 8 7 6 6 4 4 4 6 6
Wind_Direction
263 244 249 241 239 233 245 235 241 247 200 16 309 255 255 344 320 29 129 154 152 147 149 155 153 147 140 142 136 135 135 141 145 143 144 134 135 137 132 130 135 133 130 125 119 113 104 96 92
275 221 216 242 242 231 230 231 215 232 85 284 237 221 225 290 43 109 132 150 152 146 151 153 158 148 139 141 139 138 137 139 140 143 144 135 137 137 137 139 138 134 129 122 115 108 103 99 74
243 232 230 224 229 237 236 210 228 232 178 225 253 241 331 84 109 125 101 158 152 151 151 146 158 150 142 145 142 139 139 140 139 145 142 134 134 139 138 138 136 133 124 122 124 119 105 62 18
192 190 251 241 231 230 241 245 202 239 222 232 238 254 135 47 60 112 148 157 149 155 154 140 153 152 146 146 143 140 141 138 141 145 138 134 137 137 133 129 128 125 122 111 85 57 19 2 350
219 224 230 226 238 244 231 249 211 235 226 198 183 200 241 108 107 135 151 156 160 154 152 151 150 151 146 145 143 139 139 139 141 143 142 140 142 138 133 126 126 121 100 66 20 6 349 335 330
209 234 231 229 229 238 239 223 227 236 214 203 218 232 72 112 148 148 154 162 160 152 147 146 150 150 149 148 145 140 141 142 139 142 141 141 140 138 132 133 122 91 62 32 338 329 327 319 313
237 214 234 242 235 235 228 201 239 236 229 218 210 231 92 172 140 153 158 162 153 155 156 156 159 152 149 149 148 141 142 143 140 136 132 133 132 135 131 123 103 49 343 329 323 320 314 308 306
227 252 245 241 237 244 234 226 218 243 231 244 224 230 208 161 157 152 162 163 160 161 154 160 159 161 165 158 146 143 142 139 134 129 132 125 126 128 132 171 126 16 324 316 312 303 302 298 293
236 235 234 234 230 245 239 240 218 238 249 229 219 249 72 142 158 159 163 167 168 169 162 165 165 162 169 161 153 147 144 139 132 137 133 159 173 167 169 70 46 328 318 307 296 296 296 292 262
219 228 237 247 251 228 250 229 232 217 230 228 224 118 142 151 164 172 172 172 173 173 169 166 170 164 165 159 155 173 162 171 176 173 166 192 125 104 335 98 217 258 267 266 259 264 267 250 310
218 243 242 241 255 276 258 248 233 230 232 220 219 188 166 165 173 179 182 176 177 172 173 169 170 168 169 163 170 169 169 166 171 167 175 139 165 165 205 258 202 262 184 274 240 228 278 349 322
238 241 245 271 233 244 246 253 234 236 234 262 217 224 171 179 180 183 185 175 177 177 177 169 170 175 182 159 178 169 172 169 172 173 173 158 198 165 270 308 328 231 305 344 313 318 347 320 324
234 240 235 240 253 239 251 244 244 232 233 142 101 174 186 189 187 184 184 177 180 176 174 174 170 176 179 178 176 178 168 179 165 167 179 182 185 173 220 45 289 310 335 319 310 340 359 348 332
248 239 249 239 236 248 241 245 236 234 231 221 216 215 203 196 188 184 179 176 183 179 175 172 173 184 179 195 171 178 183 155 177 173 169 182 193 160 169 197 261 335 324 18 354 26 11 349 330
254 257 241 233 240 236 243 252 239 230 216 219 222 215 227 199 186 187 182 179 182 179 172 168 184 188 186 192 183 191 175 171 177 174 172 186 190 169 190 192 206 52 33 4 18 21 355 313 330
243 242 242 227 219 233 223 247 227 224 230 212 214 201 216 199 188 186 187 181 179 176 177 171 182 183 183 191 195 192 172 183 179 176 172 181 180 178 194 186 94 72 60 55 44 14 351 355 347
231 234 225 236 212 215 209 244 245 210 221 223 217 212 201 193 188 187 188 181 181 181 177 178 178 182 185 185 188 193 173 189 184 183 179 182 184 180 197 141 135 131 119 96 58 24 10 350 351
224 225 241 223 219 211 221 228 253 211 220 228 224 219 202 196 193 186 192 183 182 183 180 176 177 183 176 175 186 188 182 190 186 186 189 182 188 180 156 140 128 136 131 126 102 76 38 20 342
265 238 229 233 223 216 225 228 225 221 212 221 216 212 209 194 188 188 187 182 183 180 170 183 173 182 183 170 187 179 185 182 190 197 184 185 177 110 116 98 88 66 57 56 60 58 67 39 357
257 238 238 220 223 229 230 225 235 223 236 227 218 208 204 184 179 182 185 184 181 183 184 180 183 181 180 179 187 169 181 184 187 184 191 151 111 118 129 131 121 124 117 86 61 48 44 17 15
239 226 239 228 213 213 227 231 213 226 223 229 226 210 199 190 180 181 183 183 182 188 188 184 185 181 182 166 177 170 127 150 107 91 95 119 126 123 128 128 128 120 105 87 85 74 72 1 289
212 226 237 262 202 192 217 214 204 217 217 222 206 199 193 191 182 182 181 183 187 189 185 183 185 179 180 178 184 171 183 182 124 131 125 119 131 137 133 132 130 114 66 101 88 116 119 217 279
227 319 246 246 187 210 184 252 179 201 204 206 210 195 196 186 184 186 185 182 179 176 171 178 181 178 180 184 184 169 185 122 132 137 130 129 133 146 137 141 140 124 117 160 174 106 154 256 309
134 244 246 213 188 215 174 229 149 184 195 198 199 193 189 184 178 185 188 179 176 163 172 170 180 175 170 176 174 194 150 160 146 153 145 146 146 155 146 166 138 137 149 160 145 111 163 197 300
202 229 182 184 191 201 173 215 21 190 194 197 191 182 183 180 176 177 183 181 176 175 165 171 180 179 185 187 186 189 173 175 160 163 162 154 157 170 168 162 124 120 135 109 80 91 81 348 294
208 228 306 173 188 122 156 221 114 291 180 200 191 170 173 182 173 178 179 177 177 174 175 180 175 179 183 188 190 192 193 186 191 195 160 174 161 145 126 117 143 136 113 104 92 71 7 334 305
206 218 258 311 339 142 171 153 117 146 157 191 192 179 175 177 176 175 177 178 179 173 174 179 176 182 183 184 185 188 189 200 177 169 170 124 114 123 139 133 112 107 98 90 85 63 2 342 312
269 220 202 229 184 147 172 171 103 142 161 174 191 172 164 172 172 176 177 184 175 167 169 176 179 180 176 178 158 163 161 163 144 132 131 125 115 108 97 94 117 99 91 94 76 66 31 327 300
204 221 265 316 320 150 150 106 38 78 75 140 170 179 163 171 171 168 165 166 166 159 163 162 165 156 158 138 142 144 129 117 111 107 102 97 97 95 97 113 96 95 90 78 69 38 3 337 318
228 265 233 326 143 8 194 89 68 59 85 114 137 156 151 165 162 160 159 154 152 155 139 122 129 125 111 106 103 95 90 95 89 89 94 100 98 86 89 99 102 111 101 74 58 31 1 331 324